This is the latest recevied weather packets stored in our database for station/object VA5EVR-13. If no packets are shown the sender has not sent any weather packets the latest 10 day(s).
| Time | Temp. | Humidity | Pressure | Rain* | Wind** | Luminosity | Snow |
|---|---|---|---|---|---|---|---|
| 1777440012 | -2.22° C | 84% | 88.8 hPa | 0 mm | - | - | - |
| 1777439411 | -1.67° C | 84% | 88.8 hPa | 0 mm | - | - | - |
| 1777438812 | -1.67° C | 83% | 88.8 hPa | 0 mm | - | - | - |
| 1777438212 | -1.11° C | 83% | 88.8 hPa | 0 mm | - | - | - |
| 1777437611 | -1.11° C | 83% | 88.8 hPa | 0 mm | - | - | - |
| 1777437011 | -0.56° C | 81% | 88.8 hPa | 0 mm | - | - | - |
| 1777436412 | -0.56° C | 80% | 88.8 hPa | 0 mm | - | - | - |
| 1777435812 | -0.56° C | 79% | 88.8 hPa | 0 mm | - | - | - |
| 1777435212 | 0° C | 80% | 88.8 hPa | 0 mm | - | - | - |
| 1777434612 | 0° C | 80% | 88.8 hPa | 0 mm | - | - | - |
| 1777434011 | 0° C | 79% | 88.8 hPa | 0 mm | - | - | - |
| 1777433412 | 0.56° C | 79% | 88.8 hPa | 0 mm | - | - | - |
| 1777432812 | 0.56° C | 79% | 88.8 hPa | 0 mm | - | - | - |
| 1777432212 | 0.56° C | 79% | 88.8 hPa | 0 mm | - | - | - |
| 1777431612 | 1.11° C | 79% | 88.8 hPa | 0 mm | - | - | - |
| 1777431012 | 1.67° C | 78% | 88.8 hPa | 0 mm | - | - | - |
| 1777430412 | 2.22° C | 75% | 88.8 hPa | 0 mm | - | - | - |
| 1777429812 | 2.22° C | 71% | 88.8 hPa | 0 mm | - | - | - |
| 1777429212 | 2.78° C | 70% | 88.8 hPa | 0 mm | - | - | - |
| 1777428612 | 2.78° C | 69% | 88.8 hPa | 0 mm | - | - | - |
| 1777428011 | 3.33° C | 62% | 88.8 hPa | 0 mm | - | - | - |
| 1777427412 | 3.89° C | 60% | 88.8 hPa | 0 mm | - | - | - |
| 1777426812 | 5° C | 57% | 88.8 hPa | 0 mm | - | - | - |
| 1777426211 | 6.11° C | 56% | 88.8 hPa | 0 mm | - | - | - |
| 1777425613 | 6.67° C | 54% | 88.8 hPa | 0 mm | - | - | - |
* Rain latest hour (hover to see other rain measurements)
** Current wind speed in m/s (hover to see current wind gust speed)